Weather History for Milton, FL

Change the Weather History Date:

Thursday, November 24, 2011

  Actual Average (KNSE) Record (KNSE)
Temperature  
Mean Temperature 56 °F -  
Max Temperature 69 °F 66 °F 82 °F (2010)
Min Temperature 42 °F 47 °F 37 °F (2003)
Degree Days  
Heating Degree Days 10    
Growing Degree Days 6 (Base 50)    
Moisture  
Dew Point 42 °F    
Average Humidity 65    
Maximum Humidity 89    
Minimum Humidity 36    
Precipitation  
Precipitation 0.00 in - - ()
Sea Level Pressure  
Sea Level Pressure 30.23 in    
Wind  
Wind Speed 8 mph (NE)    
Max Wind Speed 13 mph    
Max Gust Speed -    
Visibility 10 miles    
Events      
Averages and records for this station are not official NWS values.
T = Trace of Precipitation, MM = Missing Value Source: NWS Daily Summary

Daily Weather History Graph

Daily Weather History Graph

Search for Another Location

Airport:

Trip Planner

Search our weather history database for the weather conditions in past years. The results will help you decide how hot, cold, wet, or windy it might be!

Date:

Astronomy

Nov. 24, 2011 Rise Set
Actual Time 6:21 AM CST 4:47 PM CST
Civil Twilight 5:55 AM CST 5:13 PM CST
Nautical Twilight 5:26 AM CST 5:42 PM CST
Astronomical Twilight 4:57 AM CST 6:11 PM CST
Moon 5:38 AM CST (11/24) 4:19 PM CST (11/24)
Length of Visible Light 11h 17m
Length of Day
10h 25m
Waning Crescent, 0% of the Moon is Illuminated
Nov 24
Waning Crescent
Nov 25
New
Dec 2
First Quarter
Dec 10
Full
Dec 17
Last Quarter

Hourly Weather History & Observations

Time (CST) Temp. Windchill Dew Point Humidity Pressure Visibility Wind Dir Wind Speed Gust Speed Precip Events Conditions
12:56 AM 51.1 °F - 46.0 °F 83% 30.16 in 10.0 mi North 10.4 mph - N/A   Clear
1:56 AM 50.0 °F - 45.0 °F 83% 30.17 in 10.0 mi North 9.2 mph - N/A   Clear
2:56 AM 48.9 °F - 44.1 °F 83% 30.18 in 10.0 mi NNE 8.1 mph - N/A   Clear
3:56 AM 48.0 °F - 44.1 °F 86% 30.19 in 10.0 mi NNE 8.1 mph - N/A   Clear
4:56 AM 46.9 °F - 43.0 °F 86% 30.21 in 10.0 mi NNE 6.9 mph - N/A   Clear
5:24 AM - - - N/A% - - North - - N/A   Unknown
5:56 AM 46.0 °F 42.5 °F 43.0 °F 89% 30.23 in 10.0 mi NNE 6.9 mph - N/A   Clear
6:56 AM 46.9 °F - 43.0 °F 86% 30.25 in 10.0 mi NNE 6.9 mph - N/A   Clear
7:56 AM 50.0 °F - 44.1 °F 80% 30.27 in 10.0 mi NE 10.4 mph - N/A   Clear
8:00 AM - - - N/A% - - North - - N/A   Unknown
8:56 AM 55.9 °F - 44.1 °F 64% 30.29 in 10.0 mi East 9.2 mph - N/A   Clear
9:56 AM 59.0 °F - 42.1 °F 53% 30.28 in 10.0 mi East 12.7 mph - N/A   Clear
10:56 AM 62.1 °F - 41.0 °F 46% 30.26 in 10.0 mi East 8.1 mph - N/A   Clear
11:56 AM 66.0 °F - 41.0 °F 40% 30.24 in 10.0 mi ESE 6.9 mph - N/A   Clear
12:56 PM 66.9 °F - 42.1 °F 40% 30.23 in 10.0 mi Variable 5.8 mph - N/A   Clear
1:56 PM 69.1 °F - 42.1 °F 38% 30.22 in 10.0 mi NE 6.9 mph - N/A   Clear
2:56 PM 69.1 °F - 41.0 °F 36% 30.22 in 10.0 mi NNE 6.9 mph - N/A   Clear
3:56 PM 66.9 °F - 39.9 °F 37% 30.22 in 10.0 mi NE 6.9 mph - N/A   Clear
4:56 PM 62.1 °F - 42.1 °F 48% 30.24 in 10.0 mi North 5.8 mph - N/A   Clear
5:56 PM 57.0 °F - 43.0 °F 59% 30.25 in 10.0 mi NNE 5.8 mph - N/A   Clear
6:56 PM 53.1 °F - 42.1 °F 66% 30.25 in 10.0 mi Calm Calm - N/A   Clear
7:56 PM 55.0 °F - 42.1 °F 62% 30.26 in 10.0 mi ENE 4.6 mph - N/A   Clear
8:56 PM 52.0 °F - 41.0 °F 66% 30.26 in 10.0 mi ENE 4.6 mph - N/A   Clear
9:56 PM 51.1 °F - 39.0 °F 63% 30.25 in 10.0 mi ENE 4.6 mph - N/A   Clear
10:56 PM 42.1 °F 40.2 °F 39.0 °F 89% 30.25 in 10.0 mi North 3.5 mph - N/A   Clear
11:56 PM 46.9 °F - 37.9 °F 71% 30.25 in 10.0 mi ENE 5.8 mph - N/A   Clear